Date String (YYYY-MM-DD hh:mm:ss) UTC,Instrument flags,absolute air pressure of the measurement (hPa),sample flow rate (lpm),inlet stack bypass flow (lpm),air temperature of the measurement (°C),ambient temperature measured by the external sensor (°C),aerosol sample conditioner tube jacket temperature (°C),OPC LED temperature (°C),internal box temperature (°C),relative humidity of the measurement (%),span deviation,mass concentration of particles derived from Lorenz-Mie calculation of OPC scattering (μg/m³),mass concentration of particles derived from Lorenz-Mie calculation of OPC scattering (μg/m³),mass concentration of particles derived from Lorenz-Mie calculation of OPC scattering (μg/m³)
DateTimeUTC,F1_M11,P_M11,Q1_M11,Q2_M11,T1_M11,T2_M11,T3_M11,T4_M11,T5_M11,U1_M11,ZSPAN_M11,X0_M11,X2_M11,X1_M11
2023-10-07 06:00:00,SystemResetWarning,0839.4,5.00,000.00,027.1,025.4,000.0,035.6,028.7,17.8,0000.6,0013.75,0006.68,0005.86
2023-10-07 06:01:00,SystemResetWarning,0839.4,5.01,000.00,027.1,025.4,000.0,035.6,028.7,17.8,0000.8,0013.32,0006.66,0005.87
2023-10-07 06:02:00,SystemResetWarning,0839.4,5.00,000.00,027.1,025.4,000.0,035.6,028.7,17.8,0000.8,0012.85,0006.62,0005.87
2023-10-07 06:03:00,SystemResetWarning,0839.3,5.01,000.00,027.0,025.4,000.0,035.6,028.7,17.8,0000.6,0013.72,0006.62,0005.89
2023-10-07 06:04:00,SystemResetWarning,0839.4,5.00,000.00,027.0,025.4,000.0,035.6,028.7,17.8,0000.2,0013.82,0006.56,0005.90
2023-10-07 06:05:00,SystemResetWarning,0839.4,5.00,000.00,027.0,025.4,000.0,035.6,028.7,17.9,-000.2,0014.32,0006.58,0005.91
2023-10-07 06:06:00,SystemResetWarning,0839.4,5.00,000.00,027.0,025.4,000.0,035.6,028.7,17.9,0000.1,0013.81,0006.57,0005.91
2023-10-07 06:07:00,SystemResetWarning,0839.3,5.00,000.00,027.0,025.4,000.0,035.6,028.7,17.9,0000.2,0013.24,0006.55,0005.91
2023-10-07 06:08:00,SystemResetWarning,0839.3,5.00,000.00,027.0,025.4,000.0,035.5,028.6,17.9,-000.2,0013.12,0006.52,0005.91
2023-10-07 06:09:00,SystemResetWarning,0839.3,5.00,000.00,027.0,025.4,000.0,035.5,028.6,17.9,-000.1,0013.36,0006.52,0005.90
2023-10-07 06:10:00,SystemResetWarning,0839.2,5.00,000.00,027.0,025.4,000.0,035.5,028.6,18.0,-000.2,0013.60,0006.50,0005.90
2023-10-07 06:11:00,SystemResetWarning,0839.2,5.00,000.00,027.0,025.4,000.0,035.5,028.6,18.0,-000.4,0013.69,0006.53,0005.88
2023-10-07 06:12:00,SystemResetWarning,0839.2,5.01,000.00,027.0,025.4,000.0,035.5,028.6,18.1,-000.8,0014.06,0006.51,0005.86
2023-10-07 06:13:00,SystemResetWarning,0839.2,5.00,000.00,027.0,025.4,000.0,035.5,028.6,18.1,-000.9,0014.37,0006.51,0005.84
2023-10-07 06:14:00,SystemResetWarning,0839.2,5.00,000.00,027.0,025.4,000.0,035.5,028.6,18.0,-001.1,0013.48,0006.48,0005.81
2023-10-07 06:15:00,SystemResetWarning,0839.2,5.00,000.00,027.0,025.4,000.0,035.5,028.6,18.0,-000.6,0013.10,0006.45,0005.78
2023-10-07 06:16:00,SystemResetWarning,0839.2,5.00,000.00,027.0,025.4,000.0,035.5,028.6,18.0,-000.1,0012.69,0006.41,0005.75
2023-10-07 06:17:00,SystemResetWarning,0839.1,5.00,000.00,027.0,025.3,000.0,035.5,028.6,18.0,0000.4,0012.80,0006.37,0005.72
2023-10-07 06:18:00,SystemResetWarning,0839.2,5.00,000.00,026.9,025.4,000.0,035.5,028.6,18.1,0000.7,0012.69,0006.35,0005.69
2023-10-07 06:19:00,SystemResetWarning,0839.2,5.00,000.00,026.9,025.4,000.0,035.5,028.6,18.0,0000.7,0012.81,0006.32,0005.66
2023-10-07 06:20:00,SystemResetWarning,0839.2,5.00,000.00,026.9,025.3,000.0,035.5,028.6,18.0,0000.3,0013.06,0006.26,0005.61
2023-10-07 06:21:00,SystemResetWarning,0839.1,5.00,000.00,026.9,025.3,000.0,035.5,028.6,17.9,0000.5,0012.03,0006.20,0005.59
2023-10-07 06:22:00,SystemResetWarning,0839.1,5.00,000.00,026.9,025.3,000.0,035.5,028.6,17.9,0001.3,0011.58,0006.10,0005.57
2023-10-07 06:23:00,SystemResetWarning,0839.1,5.00,000.00,026.9,025.3,000.0,035.4,028.6,17.9,0002.1,0011.05,0006.07,0005.55
2023-10-07 06:24:00,SystemResetWarning,0839.1,5.00,000.00,026.9,025.3,000.0,035.4,028.6,17.8,0002.7,0010.56,0006.04,0005.51
2023-10-07 06:25:00,SystemResetWarning,0839.1,5.01,000.00,026.9,025.3,000.0,035.4,028.6,17.8,0000.9,0010.62,0006.00,0005.49
2023-10-07 06:26:00,SystemResetWarning,0839.1,5.00,000.00,026.9,025.3,000.0,035.4,028.5,17.8,0000.0,0010.64,0005.97,0005.48
2023-10-07 06:27:00,SystemResetWarning,0839.1,5.00,000.00,026.9,025.3,000.0,035.4,028.5,17.8,0000.0,0010.69,0005.94,0005.47
2023-10-07 06:28:00,SystemResetWarning,0839.1,5.00,000.00,026.9,025.3,000.0,035.4,028.5,17.8,0000.0,0010.23,0005.92,0005.45
2023-10-07 06:29:00,SystemResetWarning,0839.1,5.00,000.00,026.9,025.3,000.0,035.4,028.5,17.7,0000.0,0010.61,0005.88,0005.42
2023-10-07 06:30:00,SystemResetWarning,0839.1,5.00,000.00,026.9,025.3,000.0,035.4,028.5,17.8,0000.7,0010.57,0005.87,0005.39
2023-10-07 06:31:00,SystemResetWarning,0839.0,5.00,000.00,026.9,025.3,000.0,035.4,028.6,17.8,0003.4,0010.06,0005.84,0005.36
2023-10-07 06:32:00,SystemResetWarning,0839.0,5.00,000.00,026.9,025.3,000.0,035.4,028.5,17.8,0002.8,0011.11,0005.83,0005.32
2023-10-07 06:33:00,SystemResetWarning,0838.9,5.00,000.00,026.9,025.3,000.0,035.4,028.5,17.8,0000.0,0011.72,0005.83,0005.28
2023-10-07 06:34:00,SystemResetWarning,0838.9,5.01,000.00,026.9,025.3,000.0,035.4,028.5,17.8,0000.0,0011.83,0005.80,0005.26
2023-10-07 06:35:00,SystemResetWarning,0838.9,5.00,000.00,026.9,025.3,000.0,035.4,028.5,17.8,0000.1,0011.96,0005.78,0005.24
2023-10-07 06:36:00,SystemResetWarning,0838.9,5.00,000.00,026.9,025.3,000.0,035.4,028.5,17.8,0001.9,0012.58,0005.76,0005.21
2023-10-07 06:37:00,SystemResetWarning,0838.9,5.00,000.00,026.9,025.2,000.0,035.4,028.5,17.7,0001.8,0012.80,0005.77,0005.18
2023-10-07 06:38:00,SystemResetWarning,0839.0,5.00,000.00,026.9,025.2,000.0,035.4,028.5,17.7,0001.1,0013.27,0005.74,0005.17
2023-10-07 06:39:00,SystemResetWarning,0839.0,5.00,000.00,026.8,025.3,000.0,035.3,028.5,17.8,0000.0,0013.22,0005.72,0005.16
2023-10-07 06:40:00,SystemResetWarning,0838.9,5.00,000.00,026.8,025.3,000.0,035.3,028.5,17.7,0000.0,0012.69,0005.67,0005.14
2023-10-07 06:41:00,SystemResetWarning,0838.9,5.00,000.00,026.8,025.3,000.0,035.3,028.5,17.7,0000.0,0012.58,0005.63,0005.13
2023-10-07 06:42:00,SystemResetWarning,0838.9,5.00,000.00,026.8,025.2,000.0,035.3,028.5,17.7,0000.0,0013.24,0005.64,0005.14
2023-10-07 06:43:00,SystemResetWarning,0838.9,5.00,000.00,026.8,025.3,000.0,035.3,028.5,17.7,0000.0,0012.28,0005.62,0005.14
2023-10-07 06:44:00,SystemResetWarning,0838.9,5.00,000.00,026.8,025.3,000.0,035.3,028.5,17.8,0000.0,0011.87,0005.61,0005.13
2023-10-07 06:45:00,SystemResetWarning,0838.9,5.00,000.00,026.8,025.2,000.0,035.3,028.5,17.8,-000.0,0011.73,0005.58,0005.13
2023-10-07 06:46:00,SystemResetWarning,0838.9,5.00,000.00,026.8,025.2,000.0,035.3,028.5,17.8,0000.0,0011.56,0005.57,0005.14
2023-10-07 06:47:00,SystemResetWarning,0838.9,5.00,000.00,026.8,025.2,000.0,035.3,028.5,17.8,0000.0,0010.75,0005.57,0005.16
2023-10-07 06:48:00,SystemResetWarning,0838.9,5.00,000.00,026.8,025.2,000.0,035.3,028.4,17.8,0000.0,0010.65,0005.56,0005.17
2023-10-07 06:49:00,SystemResetWarning,0838.9,5.00,000.00,026.8,025.2,000.0,035.3,028.4,17.8,0000.1,0010.12,0005.59,0005.18
2023-10-07 06:50:00,SystemResetWarning,0838.8,5.00,000.00,026.8,025.2,000.0,035.3,028.4,17.9,0000.0,0010.84,0005.59,0005.17
2023-10-07 06:51:00,SystemResetWarning,0838.8,5.00,000.00,026.8,025.1,000.0,035.3,028.4,17.9,0000.0,0010.89,0005.61,0005.16
2023-10-07 06:52:00,SystemResetWarning,0838.8,5.00,000.00,026.8,025.2,000.0,035.3,028.4,18.0,0000.0,0011.78,0005.62,0005.16
2023-10-07 06:53:00,SystemResetWarning,0838.8,5.00,000.00,026.8,025.2,000.0,035.3,028.4,18.0,0000.0,0011.52,0005.63,0005.17
2023-10-07 06:54:00,SystemResetWarning,0838.8,5.00,000.00,026.8,025.2,000.0,035.3,028.4,18.0,0000.0,0011.46,0005.64,0005.17
2023-10-07 06:55:00,SystemResetWarning,0838.8,5.00,000.00,026.8,025.2,000.0,035.3,028.4,18.0,0000.0,0011.40,0005.65,0005.16
2023-10-07 06:56:00,SystemResetWarning,0838.8,5.00,000.00,026.8,025.2,000.0,035.3,028.4,18.1,0000.0,0011.69,0005.65,0005.15
2023-10-07 06:57:00,SystemResetWarning,0838.8,5.00,000.00,026.7,025.1,000.0,035.3,028.4,18.1,0000.0,0011.60,0005.65,0005.13
2023-10-07 06:58:00,SystemResetWarning,0838.8,5.00,000.00,026.7,025.1,000.0,035.3,028.4,18.1,0000.0,0011.60,0005.66,0005.11
2023-10-07 06:59:00,SystemResetWarning,0838.8,5.01,000.00,026.7,025.1,000.0,035.3,028.4,18.1,0000.0,0011.59,0005.67,0005.11
